This is the latest recevied weather packets stored in our database for station/object KK7MLS-13. If no packets are shown the sender has not sent any weather packets the latest 10 day(s).
| Time | Temp. | Humidity | Pressure | Rain* | Wind** | Luminosity | Snow |
|---|---|---|---|---|---|---|---|
| 1787849001 | 19.44° C | 63% | 1019 hPa | 0 mm | - | 39 W/m² | - |
| 1787848695 | 20° C | 60% | 1019.2 hPa | 0 mm | - | 37 W/m² | - |
| 1787848390 | 20.56° C | 61% | 1019.1 hPa | 0 mm | - | 37 W/m² | - |
| 1787848084 | 20° C | 62% | 1018.9 hPa | 0 mm | - | 36 W/m² | - |
| 1787847784 | 20° C | 61% | 1019.2 hPa | 0 mm | - | 356 W/m² | - |
| 1787847479 | 20° C | 62% | 1018.9 hPa | 0 mm | - | 341 W/m² | - |
| 1787847169 | 20° C | 62% | 1018.9 hPa | 0 mm | - | 326 W/m² | - |
| 1787846866 | 20.56° C | 62% | 1018.9 hPa | 0 mm | - | 310 W/m² | - |
| 1787846560 | 19.44° C | 64% | 1019 hPa | 0 mm | - | 295 W/m² | - |
| 1787846255 | 19.44° C | 65% | 1018.7 hPa | 0 mm | - | 279 W/m² | - |
| 1787845951 | 20° C | 64% | 1018.8 hPa | 0 mm | - | 265 W/m² | - |
| 1787845647 | 19.44° C | 66% | 1018.9 hPa | 0 mm | - | 252 W/m² | - |
| 1787845346 | 19.44° C | 70% | 1019 hPa | 0 mm | - | 236 W/m² | - |
| 1787845042 | 18.89° C | 71% | 1018.7 hPa | 0 mm | - | 220 W/m² | - |
| 1787844737 | 18.33° C | 70% | 1019 hPa | 0 mm | - | 206 W/m² | - |
| 1787844436 | 18.89° C | 70% | 1019 hPa | 0 mm | - | 192 W/m² | - |
| 1787844132 | 17.78° C | 74% | 1018.7 hPa | 0 mm | - | 178 W/m² | - |
| 1787843827 | 16.67° C | 78% | 1018.7 hPa | 0 mm | - | 164 W/m² | - |
| 1787843527 | 15.56° C | 83% | 1018.6 hPa | 0 mm | - | 149 W/m² | - |
| 1787843224 | 14.44° C | 87% | 1018.6 hPa | 0 mm | - | 135 W/m² | - |
| 1787842923 | 14.44° C | 86% | 1018.5 hPa | 0 mm | - | 36 W/m² | - |
| 1787842618 | 14.44° C | 86% | 1018.6 hPa | 0 mm | - | 25 W/m² | - |
| 1787842319 | 14.44° C | 86% | 1018.6 hPa | 0 mm | - | 23 W/m² | - |
| 1787842019 | 14.44° C | 86% | 1018.6 hPa | 0 mm | - | 24 W/m² | - |
| 1787841715 | 14.44° C | 86% | 1018.6 hPa | 0 mm | - | 29 W/m² | - |
* Rain latest hour (hover to see other rain measurements)
** Current wind speed in m/s (hover to see current wind gust speed)